Flag Weather past 2 weeks in Niederkassel, North Rhine-Westphalia, Germany

Now
38 °F

Fog.


Feels Like: 35 °F
Forecast: 41 / 46 °F
Wind: 3 mph from East

Location: Bonn-Hangelar

Current Time: Nov 26, 2014 at 1:58:28 AM

Latest Report: Nov 26, 2014 at 1:00 AM


Visibility: 4 mi

Pressure: 30.07 "Hg

Humidity: 97%

Dew point: 37 °F

Location of NiederkasselLocation

Historic Weather in Niederkassel — Graph

°F

Niederkassel temperature yesterday

Maximum temperature yesterday: 44 °F (at 3:00 PM)
Minimum temperature yesterday: 33 °F (at 8:00 AM)
Average temperature yesterday: 38 °F

Past Weeks' High & Low Weather Summary

 TemperatureHumidityPressure
High61 °F (Nov 22, 3:00 PM)100% (Nov 11, 6:00 AM)30.36 "Hg (Nov 11, 6:00 AM)
Low33 °F (Nov 25, 8:00 AM)58% (Nov 13, 3:00 PM)29.50 "Hg (Nov 16, 4:00 PM)
Average46 °F90%29.92 "Hg
* Reported Midnight between Nov 10 and Nov 11 — Midnight between Nov 25 and Nov 26, Niederkassel, Weather by CustomWeather, © 2014

Note: Actual official high and low records may vary slightly from our data, if they occured in-between our weather recording intervals... More about our weather records

Advertising

Niederkassel weather history for previous 24 hours

 ConditionsComfort  
Time TempWeatherWind HumidityBarometerVisibility
12:00 AM
Nov 26
37 °FFog.5 mph96%30.09 "Hg4 mi
11:00 PM
Nov 25
38 °FOvercast.5 mph91%30.11 "Hg6 mi
10:00 PM39 °FOvercast.8 mph89%30.10 "Hg8 mi
9:00 PM40 °FPassing clouds.8 mph86%30.12 "Hg25 mi
8:00 PM41 °FPassing clouds.9 mph84%30.12 "Hg25 mi
7:00 PM42 °FPassing clouds.9 mph78%30.14 "Hg25 mi
6:00 PM41 °FOvercast.8 mph78%30.16 "Hg25 mi
5:00 PM42 °FOvercast.9 mph82%30.16 "Hg19 mi
4:00 PM43 °FPartly sunny.8 mph80%30.16 "Hg19 mi
3:00 PM44 °FPartly sunny.8 mph84%30.18 "Hg19 mi
2:00 PM43 °FPartly sunny.7 mph82%30.20 "Hg19 mi
1:00 PM41 °FScattered clouds.6 mph88%30.22 "Hg19 mi
12:00 PM40 °FPassing clouds.7 mph88%30.24 "Hg16 mi
11:00 AM39 °FScattered clouds.5 mph92%30.26 "Hg12 mi
10:00 AM36 °FScattered clouds.5 mph97%30.27 "Hg12 mi
9:00 AM34 °FPassing clouds.5 mph99%30.28 "Hg12 mi
8:00 AM33 °FPassing clouds.6 mph98%30.29 "Hg16 mi
7:00 AM34 °FPassing clouds.6 mph99%30.29 "Hg12 mi
6:00 AM34 °FPassing clouds.6 mph98%30.31 "Hg16 mi
5:00 AM34 °FFog.5 mph97%30.31 "Hg4 mi
4:00 AM35 °FFog.5 mph97%30.32 "Hg4 mi
3:00 AM36 °FPassing clouds.6 mph96%30.31 "Hg5 mi
2:00 AM38 °FClear.6 mph93%30.32 "Hg7 mi
1:00 AM38 °FPassing clouds.5 mph94%30.34 "Hg7 mi
Weather by CustomWeather, © 2014

See weather overviewHow to use our weather pages